RYR80FG EINN-EPKK

Flight info

Callsign RYR80FG
Flight time N/A
Altitude 37000
Route ABAGU3B ABAGU DCT ENJEX DCT ADHAV DCT AXNEF DCT ZIPWE DCT OZZIL DCT SAWPE L179 ICTAM M197 REDFA DCT TACHA DCT POVEL DCT MAG DCT BOLBO DCT LASIS T714 MOFKE
Aircraft B38M/M-SADE3FGILRWY/SB1

Departure

Time 2026-05-07 15:46
Airport Shannon Airport (EINN)

Arrival

Time N/A
Airport Kraków John Paul II International Airport (EPKK)
Time Latitude Longitude Altitude Speed Heading
2026-05-07 15:16 52.69375 -8.92167 25 ft 0 kts 185°
2026-05-07 15:37 52.69386 -8.92166 28 ft 4 kts 185°
2026-05-07 15:37 52.69413 -8.92163 27 ft 4 kts 185°
2026-05-07 15:37 52.69439 -8.92158 29 ft 4 kts 188°
2026-05-07 15:38 52.69466 -8.92155 26 ft 3 kts 175°
2026-05-07 15:38 52.69487 -8.92163 26 ft 4 kts 138°
2026-05-07 15:38 52.69500 -8.92199 26 ft 3 kts 110°
2026-05-07 15:38 52.69503 -8.92211 27 ft 0 kts 111°
2026-05-07 15:40 52.69502 -8.92208 27 ft 1 kts 111°
2026-05-07 15:41 52.69493 -8.92169 27 ft 7 kts 111°
2026-05-07 15:41 52.69472 -8.92047 25 ft 15 kts 104°
2026-05-07 15:41 52.69445 -8.91867 26 ft 14 kts 106°
2026-05-07 15:41 52.69375 -8.91752 25 ft 16 kts 164°
2026-05-07 15:42 52.69290 -8.91653 27 ft 16 kts 130°
2026-05-07 15:42 52.69273 -8.91526 27 ft 12 kts 45°
2026-05-07 15:42 52.69357 -8.91472 27 ft 14 kts 18°
2026-05-07 15:42 52.69454 -8.91419 28 ft 16 kts 19°
2026-05-07 15:43 52.69566 -8.91356 25 ft 18 kts 18°
2026-05-07 15:43 52.69689 -8.91289 26 ft 20 kts 18°
2026-05-07 15:43 52.69825 -8.91214 25 ft 22 kts 19°
2026-05-07 15:43 52.69974 -8.91132 25 ft 23 kts 18°
2026-05-07 15:44 52.70102 -8.91060 25 ft 19 kts 18°
2026-05-07 15:44 52.70235 -8.90986 27 ft 21 kts 18°
2026-05-07 15:44 52.70377 -8.90908 26 ft 22 kts 18°
2026-05-07 15:44 52.70528 -8.90826 26 ft 24 kts 18°
2026-05-07 15:45 52.70678 -8.90742 28 ft 18 kts 19°
2026-05-07 15:45 52.70802 -8.90673 27 ft 18 kts 17°
2026-05-07 15:45 52.70916 -8.90701 26 ft 17 kts 322°
2026-05-07 15:45 52.70977 -8.90819 26 ft 12 kts 268°
2026-05-07 15:46 52.70731 -8.91360 28 ft 85 kts 232°
2026-05-07 15:46 52.70224 -8.92435 44 ft 148 kts 232°
2026-05-07 15:46 52.69557 -8.93837 663 ft 157 kts 231°
2026-05-07 15:47 52.68871 -8.95296 1520 ft 163 kts 233°
2026-05-07 15:47 52.68164 -8.96801 2344 ft 172 kts 231°
2026-05-07 15:47 52.67100 -8.97721 3124 ft 181 kts 183°
2026-05-07 15:47 52.65897 -8.97060 4000 ft 188 kts 154°
2026-05-07 15:48 52.64692 -8.96150 4807 ft 192 kts 162°
2026-05-07 15:48 52.63442 -8.95373 5679 ft 193 kts 163°
2026-05-07 15:48 52.62160 -8.94639 6507 ft 197 kts 165°
2026-05-07 15:48 52.60856 -8.93931 7376 ft 200 kts 163°
2026-05-07 15:49 52.59666 -8.92549 7913 ft 227 kts 128°
2026-05-07 15:49 52.59102 -8.89998 8488 ft 252 kts 98°
2026-05-07 15:49 52.58955 -8.87016 9166 ft 271 kts 97°
2026-05-07 15:49 52.58761 -8.83824 9820 ft 289 kts 98°
2026-05-07 15:50 52.58552 -8.80514 10574 ft 297 kts 98°
2026-05-07 15:50 52.58331 -8.77114 11475 ft 302 kts 98°
2026-05-07 15:50 52.58103 -8.73652 12325 ft 307 kts 98°
2026-05-07 15:50 52.57869 -8.70138 13182 ft 312 kts 98°
2026-05-07 15:51 52.57630 -8.66568 14008 ft 316 kts 98°
2026-05-07 15:51 52.57386 -8.62947 14744 ft 321 kts 99°
2026-05-07 15:51 52.57139 -8.59286 15500 ft 324 kts 99°
2026-05-07 15:51 52.56887 -8.55578 16277 ft 329 kts 99°
2026-05-07 15:52 52.56630 -8.51819 16999 ft 333 kts 99°
2026-05-07 15:52 52.56369 -8.48022 17726 ft 336 kts 99°
2026-05-07 15:52 52.56105 -8.44181 18407 ft 340 kts 99°
2026-05-07 15:52 52.55835 -8.40294 19023 ft 344 kts 99°
2026-05-07 15:53 52.55562 -8.36382 19643 ft 346 kts 99°
2026-05-07 15:53 52.55286 -8.32436 20238 ft 349 kts 99°
2026-05-07 15:53 52.55007 -8.28458 20851 ft 352 kts 99°
2026-05-07 15:53 52.54723 -8.24449 21450 ft 355 kts 99°
2026-05-07 15:54 52.54436 -8.20405 22038 ft 358 kts 99°
2026-05-07 15:54 52.54146 -8.16332 22607 ft 361 kts 99°
2026-05-07 15:54 52.53851 -8.12231 23173 ft 363 kts 99°
2026-05-07 15:54 52.53553 -8.08094 23693 ft 366 kts 100°
2026-05-07 15:55 52.53252 -8.03939 24144 ft 368 kts 100°
2026-05-07 15:55 52.52948 -7.99756 24608 ft 370 kts 100°
2026-05-07 15:55 52.52641 -7.95559 25066 ft 372 kts 100°
2026-05-07 15:55 52.52329 -7.91323 25507 ft 374 kts 100°
2026-05-07 15:56 52.52015 -7.87073 25938 ft 376 kts 100°
2026-05-07 15:56 52.51698 -7.82798 26373 ft 378 kts 100°
2026-05-07 15:56 52.51377 -7.78503 26791 ft 380 kts 100°
2026-05-07 15:56 52.51058 -7.74244 27185 ft 382 kts 100°
2026-05-07 15:57 52.50732 -7.69896 27592 ft 384 kts 100°
2026-05-07 15:57 52.50366 -7.65538 27894 ft 388 kts 106°
2026-05-07 15:57 52.49422 -7.61377 27880 ft 395 kts 119°
2026-05-07 15:57 52.48282 -7.57192 27896 ft 408 kts 116°
2026-05-07 15:58 52.47136 -7.52869 27980 ft 418 kts 117°
2026-05-07 15:58 52.45964 -7.48505 28408 ft 419 kts 117°
2026-05-07 15:58 52.44779 -7.44129 28773 ft 421 kts 117°
2026-05-07 15:58 52.43584 -7.39727 29161 ft 424 kts 117°
2026-05-07 15:59 52.42381 -7.35309 29543 ft 426 kts 117°
2026-05-07 15:59 52.41171 -7.30875 29927 ft 428 kts 117°
2026-05-07 15:59 52.39950 -7.26410 30240 ft 430 kts 117°
2026-05-07 15:59 52.38725 -7.21941 30550 ft 432 kts 117°
2026-05-07 16:00 52.37490 -7.17438 30854 ft 434 kts 117°
2026-05-07 16:00 52.36250 -7.12930 31152 ft 436 kts 117°
2026-05-07 16:00 52.35001 -7.08397 31450 ft 438 kts 117°
2026-05-07 16:00 52.33747 -7.03856 31735 ft 440 kts 117°
2026-05-07 16:01 52.32486 -6.99296 32019 ft 441 kts 117°
2026-05-07 16:01 52.31217 -6.94716 32296 ft 443 kts 117°
2026-05-07 16:01 52.29940 -6.90121 32574 ft 445 kts 117°
2026-05-07 16:01 52.28655 -6.85502 32848 ft 447 kts 117°
2026-05-07 16:02 52.27367 -6.80881 33127 ft 448 kts 117°
2026-05-07 16:02 52.26075 -6.76255 33486 ft 448 kts 117°
2026-05-07 16:02 52.24783 -6.71640 33847 ft 447 kts 117°
2026-05-07 16:02 52.23490 -6.67029 34167 ft 446 kts 117°
2026-05-07 16:03 52.22197 -6.62427 34430 ft 447 kts 117°
2026-05-07 16:03 52.20899 -6.57821 34671 ft 447 kts 117°
2026-05-07 16:03 52.19597 -6.53206 34927 ft 448 kts 117°
2026-05-07 16:03 52.18293 -6.48592 35170 ft 448 kts 117°
2026-05-07 16:04 52.16987 -6.43980 35417 ft 449 kts 117°
2026-05-07 16:04 52.15676 -6.39361 35648 ft 449 kts 117°
2026-05-07 16:04 52.14363 -6.34744 35882 ft 450 kts 117°
2026-05-07 16:04 52.13045 -6.30116 36122 ft 450 kts 117°
2026-05-07 16:05 52.11725 -6.25495 36351 ft 451 kts 117°
2026-05-07 16:05 52.10403 -6.20873 36582 ft 451 kts 117°
2026-05-07 16:05 52.09076 -6.16239 36798 ft 452 kts 117°
2026-05-07 16:05 52.07748 -6.11607 36965 ft 453 kts 117°
2026-05-07 16:06 52.06415 -6.06969 37007 ft 453 kts 117°
2026-05-07 16:06 52.04429 -5.97257 36994 ft 455 kts 108°
2026-05-07 16:07 52.02726 -5.87369 36995 ft 455 kts 108°
2026-05-07 16:07 52.01018 -5.77458 37008 ft 459 kts 108°
2026-05-07 16:08 51.99277 -5.67406 36986 ft 466 kts 108°
2026-05-07 16:08 51.97508 -5.57254 36992 ft 468 kts 108°
2026-05-07 16:09 51.95732 -5.47116 37003 ft 467 kts 108°
2026-05-07 16:09 51.93947 -5.36983 37005 ft 468 kts 108°
2026-05-07 16:10 51.92153 -5.26854 37003 ft 467 kts 108°
2026-05-07 16:10 51.90836 -5.16544 37006 ft 469 kts 102°
2026-05-07 16:11 51.89658 -5.06225 37003 ft 469 kts 103°
2026-05-07 16:11 51.88428 -4.95852 37003 ft 469 kts 103°
2026-05-07 16:12 51.87186 -4.85482 37003 ft 469 kts 103°
2026-05-07 16:12 51.85936 -4.75122 37001 ft 470 kts 103°
2026-05-07 16:13 51.84675 -4.64757 37003 ft 470 kts 103°
2026-05-07 16:13 51.83404 -4.54393 37005 ft 470 kts 103°
2026-05-07 16:14 51.82124 -4.44034 37004 ft 470 kts 103°
2026-05-07 16:14 51.80835 -4.33675 37010 ft 470 kts 103°
2026-05-07 16:15 51.79535 -4.23320 37008 ft 471 kts 103°
2026-05-07 16:15 51.78226 -4.12960 37011 ft 471 kts 103°
2026-05-07 16:16 51.76908 -4.02612 37014 ft 470 kts 103°
2026-05-07 16:16 51.75584 -3.92266 37012 ft 470 kts 103°
2026-05-07 16:17 51.74482 -3.83681 37013 ft 470 kts 103°
2026-05-07 16:17 51.73151 -3.73354 37010 ft 470 kts 103°
2026-05-07 16:18 51.71592 -3.61346 37012 ft 470 kts 103°
2026-05-07 16:18 51.70767 -3.52610 37019 ft 471 kts 97°
2026-05-07 16:19 51.70141 -3.42082 37012 ft 472 kts 97°
2026-05-07 16:19 51.69519 -3.31554 37024 ft 472 kts 97°
2026-05-07 16:20 51.68889 -3.21021 37034 ft 472 kts 97°
2026-05-07 16:20 51.68250 -3.10488 37043 ft 472 kts 97°
2026-05-07 16:21 51.67601 -2.99963 37047 ft 472 kts 97°
2026-05-07 16:21 51.66944 -2.89447 37045 ft 472 kts 97°
2026-05-07 16:22 51.66276 -2.78924 37043 ft 472 kts 97°
2026-05-07 16:22 51.65603 -2.68477 37037 ft 472 kts 97°
2026-05-07 16:23 51.64918 -2.57966 37026 ft 472 kts 97°
2026-05-07 16:23 51.64221 -2.47407 37021 ft 472 kts 97°
2026-05-07 16:24 51.63517 -2.36954 37022 ft 472 kts 97°
2026-05-07 16:24 51.62803 -2.26450 37018 ft 472 kts 97°
2026-05-07 16:25 51.62079 -2.15961 37023 ft 472 kts 97°
2026-05-07 16:25 51.61345 -2.05451 37022 ft 472 kts 97°
2026-05-07 16:26 51.60602 -1.94952 37028 ft 472 kts 97°
2026-05-07 16:26 51.59850 -1.84460 37026 ft 473 kts 98°
2026-05-07 16:27 51.59088 -1.73965 37026 ft 473 kts 98°
2026-05-07 16:27 51.58189 -1.63497 37026 ft 472 kts 102°
2026-05-07 16:28 51.56966 -1.53125 37023 ft 472 kts 102°
2026-05-07 16:28 51.55776 -1.42743 37024 ft 472 kts 102°
2026-05-07 16:29 51.54583 -1.32375 37024 ft 472 kts 102°
2026-05-07 16:29 51.53380 -1.21992 37022 ft 472 kts 102°
2026-05-07 16:29 51.53081 -1.16738 37001 ft 473 kts 87°
2026-05-07 16:30 51.53598 -1.11613 37036 ft 473 kts 76°
2026-05-07 16:30 51.55160 -1.01300 37021 ft 475 kts 76°
2026-05-07 16:31 51.56791 -0.90946 37023 ft 475 kts 76°
2026-05-07 16:31 51.58418 -0.80708 37025 ft 475 kts 76°
2026-05-07 16:32 51.60058 -0.70336 37042 ft 475 kts 76°
2026-05-07 16:32 51.61668 -0.60094 37045 ft 475 kts 76°
2026-05-07 16:33 51.63279 -0.49778 37047 ft 475 kts 76°
2026-05-07 16:33 51.64880 -0.39462 37073 ft 475 kts 76°
2026-05-07 16:34 51.66483 -0.29069 37074 ft 475 kts 76°
2026-05-07 16:34 51.68142 -0.18779 37075 ft 475 kts 75°
2026-05-07 16:35 51.69771 -0.08544 37072 ft 475 kts 76°
2026-05-07 16:35 51.71386 0.01764 37063 ft 475 kts 76°
2026-05-07 16:36 51.72997 0.12097 37067 ft 475 kts 76°
2026-05-07 16:36 51.74597 0.22424 37069 ft 474 kts 76°
2026-05-07 16:37 51.76177 0.32687 37074 ft 474 kts 76°
2026-05-07 16:37 51.77757 0.43019 37070 ft 474 kts 76°
2026-05-07 16:38 51.79330 0.53370 37069 ft 474 kts 76°
2026-05-07 16:38 51.80895 0.63711 37069 ft 474 kts 76°
2026-05-07 16:39 51.82485 0.74044 37073 ft 474 kts 76°
2026-05-07 16:39 51.84197 0.84338 37077 ft 473 kts 73°
2026-05-07 16:40 51.86076 0.94542 37072 ft 474 kts 74°
2026-05-07 16:40 51.87924 1.04773 37075 ft 473 kts 74°
2026-05-07 16:41 51.89759 1.14999 37075 ft 473 kts 74°
2026-05-07 16:41 51.91587 1.25242 37077 ft 473 kts 74°
2026-05-07 16:42 51.93404 1.35485 37081 ft 473 kts 74°
2026-05-07 16:42 51.95213 1.45735 37081 ft 473 kts 74°
2026-05-07 16:43 51.97009 1.55974 37082 ft 473 kts 74°
2026-05-07 16:43 51.98800 1.66238 37083 ft 473 kts 75°
2026-05-07 16:44 52.00416 1.76592 37085 ft 473 kts 76°
2026-05-07 16:44 52.02028 1.86949 37083 ft 473 kts 76°
2026-05-07 16:45 52.03636 1.97316 37087 ft 473 kts 76°
2026-05-07 16:45 52.05223 2.07617 37085 ft 473 kts 76°
2026-05-07 16:46 52.06823 2.18073 37087 ft 474 kts 76°
2026-05-07 16:46 52.08404 2.28466 37086 ft 474 kts 76°
2026-05-07 16:47 52.09966 2.38803 37086 ft 474 kts 76°
2026-05-07 16:47 52.11590 2.49208 37086 ft 474 kts 72°
2026-05-07 16:48 52.13588 2.59433 37090 ft 475 kts 73°
2026-05-07 16:48 52.15529 2.69703 37091 ft 475 kts 73°
2026-05-07 16:49 52.17459 2.79997 37091 ft 475 kts 73°
2026-05-07 16:49 52.19379 2.90304 37089 ft 475 kts 73°
2026-05-07 16:50 52.21293 3.00629 37089 ft 476 kts 73°
2026-05-07 16:50 52.23198 3.10968 37089 ft 476 kts 73°
2026-05-07 16:51 52.25095 3.21330 37090 ft 477 kts 75°
2026-05-07 16:51 52.25618 3.26636 37080 ft 473 kts 90°
2026-05-07 16:51 52.25677 3.32017 37087 ft 476 kts 89°
2026-05-07 16:52 52.25878 3.42820 37090 ft 476 kts 90°
2026-05-07 16:52 52.26024 3.53626 37091 ft 476 kts 90°
2026-05-07 16:53 52.26158 3.64436 37091 ft 476 kts 90°
2026-05-07 16:53 52.26281 3.75246 37089 ft 477 kts 90°
2026-05-07 16:54 52.26394 3.86062 37089 ft 477 kts 90°
2026-05-07 16:54 52.26498 3.96882 37089 ft 477 kts 90°
2026-05-07 16:55 52.26591 4.07697 37088 ft 476 kts 90°
2026-05-07 16:55 52.26675 4.18505 37082 ft 476 kts 90°
2026-05-07 16:56 52.26748 4.29304 37079 ft 475 kts 90°
2026-05-07 16:56 52.26840 4.45487 37076 ft 475 kts 90°
2026-05-07 16:57 52.26889 4.56269 37076 ft 475 kts 90°
2026-05-07 16:57 52.26928 4.67043 37074 ft 475 kts 91°
2026-05-07 16:58 52.26958 4.77806 37076 ft 475 kts 91°
2026-05-07 16:58 52.26977 4.88583 37076 ft 475 kts 91°
2026-05-07 16:59 52.26987 4.99373 37075 ft 475 kts 91°
2026-05-07 16:59 52.26987 5.10147 37073 ft 475 kts 91°
2026-05-07 17:00 52.26977 5.20926 37073 ft 475 kts 91°
2026-05-07 17:00 52.26957 5.31704 37072 ft 475 kts 91°
2026-05-07 17:01 52.26928 5.42481 37072 ft 475 kts 91°
2026-05-07 17:01 52.26888 5.53270 37069 ft 475 kts 91°
2026-05-07 17:02 52.26848 5.62240 37071 ft 475 kts 92°
2026-05-07 17:02 52.26791 5.73018 37064 ft 475 kts 92°
2026-05-07 17:03 52.26723 5.83800 37069 ft 475 kts 92°
2026-05-07 17:03 52.26646 5.94597 37065 ft 475 kts 92°
2026-05-07 17:04 52.26559 6.05385 37071 ft 475 kts 92°
2026-05-07 17:04 52.26463 6.16175 37061 ft 476 kts 92°
2026-05-07 17:05 52.26356 6.26976 37063 ft 476 kts 92°
2026-05-07 17:05 52.26239 6.37758 37052 ft 475 kts 92°
2026-05-07 17:06 52.26113 6.48539 37052 ft 475 kts 92°
2026-05-07 17:06 52.25977 6.59321 37054 ft 475 kts 93°
2026-05-07 17:07 52.25832 6.70091 37053 ft 475 kts 93°
2026-05-07 17:07 52.25676 6.80874 37057 ft 475 kts 93°
2026-05-07 17:08 52.25511 6.91647 37060 ft 475 kts 93°
2026-05-07 17:08 52.25336 7.02354 37063 ft 475 kts 93°
2026-05-07 17:09 52.25150 7.13203 37063 ft 475 kts 93°
2026-05-07 17:09 52.24956 7.23971 37074 ft 475 kts 93°
2026-05-07 17:10 52.24751 7.34751 37085 ft 475 kts 94°
2026-05-07 17:10 52.24538 7.45450 37093 ft 475 kts 94°
2026-05-07 17:11 52.24314 7.56216 37098 ft 475 kts 94°
2026-05-07 17:11 52.24079 7.66998 37101 ft 475 kts 94°
2026-05-07 17:12 52.23836 7.77768 37096 ft 475 kts 94°
2026-05-07 17:12 52.23582 7.88538 37095 ft 475 kts 94°
2026-05-07 17:13 52.23318 7.99326 37094 ft 476 kts 94°
2026-05-07 17:13 52.23045 8.10097 37089 ft 476 kts 94°
2026-05-07 17:14 52.22761 8.20873 37085 ft 476 kts 94°
2026-05-07 17:14 52.22468 8.31662 37084 ft 476 kts 94°
2026-05-07 17:15 52.22165 8.42438 37079 ft 476 kts 95°
2026-05-07 17:15 52.21852 8.53205 37082 ft 476 kts 95°
2026-05-07 17:16 52.21529 8.64000 37086 ft 476 kts 95°
2026-05-07 17:16 52.21196 8.74775 37095 ft 476 kts 95°
2026-05-07 17:17 52.20853 8.85568 37099 ft 476 kts 95°
2026-05-07 17:17 52.20501 8.96349 37102 ft 476 kts 95°
2026-05-07 17:18 52.20138 9.07131 37101 ft 476 kts 95°
2026-05-07 17:18 52.19766 9.17913 37102 ft 476 kts 95°
2026-05-07 17:19 52.19383 9.28701 37094 ft 477 kts 95°
2026-05-07 17:19 52.18991 9.39483 37093 ft 477 kts 95°
2026-05-07 17:20 52.18592 9.50190 37097 ft 477 kts 96°
2026-05-07 17:20 52.18180 9.60972 37089 ft 477 kts 96°
2026-05-07 17:21 52.17758 9.71760 37095 ft 477 kts 96°
2026-05-07 17:21 52.17326 9.82534 37095 ft 477 kts 96°
2026-05-07 17:22 52.16884 9.93311 37088 ft 473 kts 94°
2026-05-07 17:22 52.16440 10.03936 37085 ft 469 kts 94°
2026-05-07 17:23 52.15990 10.14526 37084 ft 469 kts 95°
2026-05-07 17:23 52.15530 10.25127 37086 ft 469 kts 95°
2026-05-07 17:24 52.15062 10.35734 37100 ft 470 kts 95°
2026-05-07 17:24 52.14585 10.46339 37093 ft 470 kts 95°
2026-05-07 17:25 52.14098 10.56947 37085 ft 470 kts 95°
2026-05-07 17:25 52.13602 10.67553 37094 ft 470 kts 95°
2026-05-07 17:26 52.13097 10.78155 37086 ft 470 kts 95°
2026-05-07 17:26 52.12062 10.88614 37093 ft 469 kts 103°
2026-05-07 17:27 52.10662 10.98983 37078 ft 469 kts 103°
2026-05-07 17:27 52.09257 11.09356 37079 ft 469 kts 103°
2026-05-07 17:28 52.07843 11.19717 37071 ft 469 kts 103°
2026-05-07 17:28 52.06421 11.30061 37082 ft 469 kts 103°
2026-05-07 17:29 52.04988 11.40416 37076 ft 470 kts 103°
2026-05-07 17:29 52.03556 11.50692 37077 ft 470 kts 103°
2026-05-07 17:30 52.02105 11.61035 37073 ft 470 kts 103°
2026-05-07 17:30 52.00636 11.71434 37079 ft 470 kts 104°
2026-05-07 17:31 51.99183 11.81692 37076 ft 470 kts 104°
2026-05-07 17:31 51.97717 11.92019 37064 ft 470 kts 104°
2026-05-07 17:32 51.96242 12.02338 37074 ft 470 kts 104°
2026-05-07 17:32 51.94999 12.10981 37065 ft 470 kts 104°
2026-05-07 17:33 51.93265 12.22960 37071 ft 470 kts 104°
2026-05-07 17:33 51.91762 12.33263 37070 ft 470 kts 104°
2026-05-07 17:34 51.90250 12.43566 37072 ft 470 kts 104°
2026-05-07 17:34 51.88728 12.53865 37074 ft 470 kts 104°
2026-05-07 17:35 51.87201 12.64127 37067 ft 470 kts 104°
2026-05-07 17:35 51.85657 12.74437 37069 ft 470 kts 105°
2026-05-07 17:36 51.84108 12.84718 37066 ft 471 kts 105°
2026-05-07 17:36 51.82553 12.94968 37074 ft 471 kts 105°
2026-05-07 17:37 51.80983 13.05262 37079 ft 471 kts 105°
2026-05-07 17:37 51.79351 13.15516 37068 ft 470 kts 110°
2026-05-07 17:38 51.77226 13.25483 37073 ft 470 kts 110°
2026-05-07 17:38 51.75157 13.35487 37073 ft 470 kts 110°
2026-05-07 17:39 51.73087 13.45502 37069 ft 470 kts 110°
2026-05-07 17:39 51.71009 13.55508 37068 ft 470 kts 110°
2026-05-07 17:40 51.68926 13.65496 37061 ft 471 kts 110°
2026-05-07 17:40 51.66830 13.75490 37052 ft 471 kts 110°
2026-05-07 17:41 51.64741 13.85403 37055 ft 471 kts 110°
2026-05-07 17:41 51.62628 13.95381 37054 ft 471 kts 110°
2026-05-07 17:42 51.60507 14.05346 37051 ft 471 kts 111°
2026-05-07 17:42 51.58379 14.15299 37048 ft 471 kts 111°
2026-05-07 17:43 51.56239 14.25256 37047 ft 471 kts 111°
2026-05-07 17:43 51.54094 14.35187 37043 ft 471 kts 111°
2026-05-07 17:44 51.51940 14.45112 37041 ft 471 kts 111°
2026-05-07 17:44 51.49776 14.55039 37042 ft 471 kts 111°
2026-05-07 17:45 51.47605 14.64951 37038 ft 471 kts 111°
2026-05-07 17:45 51.45423 14.74860 37036 ft 471 kts 112°
2026-05-07 17:46 51.43236 14.84755 37033 ft 471 kts 112°
2026-05-07 17:46 51.41057 14.94563 37030 ft 470 kts 113°
2026-05-07 17:47 51.38608 15.04018 37028 ft 469 kts 115°
2026-05-07 17:47 51.36114 15.13676 37020 ft 469 kts 115°
2026-05-07 17:48 51.33622 15.23321 37024 ft 469 kts 115°
2026-05-07 17:48 51.31137 15.32894 37018 ft 469 kts 115°
2026-05-07 17:49 51.28614 15.42581 37018 ft 469 kts 115°
2026-05-07 17:49 51.26097 15.52195 37005 ft 469 kts 116°
2026-05-07 17:50 51.21111 15.71132 37007 ft 468 kts 116°
2026-05-07 17:51 51.18577 15.80696 37008 ft 468 kts 116°
2026-05-07 17:51 51.16076 15.90271 37003 ft 468 kts 115°
2026-05-07 17:52 51.13607 15.99856 37006 ft 468 kts 116°
2026-05-07 17:52 51.11128 16.09425 36999 ft 467 kts 116°
2026-05-07 17:53 51.08640 16.18987 37000 ft 468 kts 116°
2026-05-07 17:53 51.06149 16.28521 37002 ft 468 kts 116°
2026-05-07 17:54 51.03895 16.37114 37002 ft 468 kts 116°
2026-05-07 17:54 51.01386 16.46642 37006 ft 468 kts 116°